Regional Weather Roundup
Issued by NWS

Home | Current Version | Previous Version | Text Only | Print | Product List | Glossary Off
Versions: 1 2 3 4 5 6 7 8 9 10 11 12 13 14 15 16 17 18 19 20 21 22 23 24 25 26 27 28 29 30 31 32 33 34 35 36 37 38 39 40 41 42 43 44 45 46 47 48 49 50

000
ASUS43 KMKX 032311
RWRWI

WISCONSIN REGIONAL WEATHER ROUNDUP
NATIONAL WEATHER SERVICE MILWAUKEE/SULLIVAN WI
600 PM CDT FRI JUL 03 2015

NOTE: "FAIR" INDICATES FEW OR NO CLOUDS BELOW 12,000 FEET WITH NO
SIGNIFICANT WEATHER AND/OR OBSTRUCTIONS TO VISIBILITY.

WIZ001-002-006>008-014>016-023>028-040000-
NORTHWEST WISCONSIN

CITY           SKY/WX    TMP DP  RH WIND       PRES   REMARKS
SUPERIOR ARPT  SUNNY     79  64  59 NW6       29.84S HX  80
ASHLAND        SUNNY     78  66  66 SW3       29.85S HAZE    HX  80
HAYWARD        SUNNY     75  62  64 W9        29.89S
SIREN          MOSUNNY   77  63  62 W7        29.89S
CUMBERLAND     MOSUNNY   73  59  60 SW6       29.91S
RICE LAKE      MOSUNNY   76  58  54 SW6       29.91S
CHETEK         PTSUNNY   76  60  57 SW5       29.91R
LADYSMITH      PTSUNNY   75  60  59 SW7       29.92S
EAU CLAIRE     SUNNY     75  57  53 SW12      29.90F
MENOMONIE      SUNNY     77  58  51 SW10      29.91S
NEW RICHMOND   SUNNY     76  59  54 W8        29.92R
OSCEOLA        PTSUNNY   77  61  56 SW8       29.93S
$$

WIZ003>005-009-010-017-018-040000-
NORTH CENTRAL WISCONSIN

CITY           SKY/WX    TMP DP  RH WIND       PRES   REMARKS
MANITOWISH WTR PTSUNNY   74  62  66 W8        29.90R
ARBOR VITAE    MOSUNNY   74  62  64 W7        29.91R
WOODRUFF       MOSUNNY   74  62  64 W7        29.91R
RHINELANDER    PTSUNNY   74  57  55 W7        29.92S
EAGLE RIVER    SUNNY     73  57  58 W10       29.90S
LAND O LAKES   MOSUNNY   74  58  58 W7        29.90S
PHILLIPS       PTSUNNY   73  60  62 SW8       29.90S
TOMAHAWK       PTSUNNY   72  56  58 W8        29.91S
MEDFORD        MOSUNNY   73  56  56 W9        29.92S
MERRILL        PTSUNNY   74  57  54 W9        29.92S
$$

WIZ029-030-035-036-043>047-040000-
CENTRAL WISCONSIN

CITY           SKY/WX    TMP DP  RH WIND       PRES   REMARKS
WAUSAU         CLOUDY    75  55  49 W10       29.90S
MOSINEE        MOSUNNY   72  57  60 W10       29.92F
MARSHFIELD     SUNNY     75  53  46 W9        29.92S
STEVENS POINT  SUNNY     74  56  52 SW9       29.91F
WAUPACA        SUNNY     78  54  42 W8        29.91S
WAUTOMA        SUNNY     78  54  43 SW9       29.92S
WISC RAPIDS    SUNNY     77  54  44 W8        29.92F
CAMP DOUGLAS   SUNNY     75  61  62 W8        29.91F
$$

WIZ011>013-019>022-031-037>040-048>050-040000-
NORTHEAST WISCONSIN

CITY           SKY/WX    TMP DP  RH WIND       PRES   REMARKS
ANTIGO         PTSUNNY   70  58  64 W7        29.92S
SHAWANO        SUNNY     77  53  41 SW8       29.89F
OCONTO         PTSUNNY   73  54  50 SW6       29.88S
STURGEON BAY   MOSUNNY   73  54  49 SW8       29.91F
GREEN BAY      SUNNY     76  53  44 W7        29.90F
MANITOWOC      PTSUNNY   70  49  47 MISG      29.92S
APPLETON       PTSUNNY   73  50  43 SW7       29.92F
CLINTONVILLE   MOSUNNY   77  52  41 W8        29.89F
OSHKOSH        SUNNY     74  52  46 SW5       29.91F
$$

WIZ032>034-041-042-053>061-040000-
SOUTHWEST WISCONSIN

CITY           SKY/WX    TMP DP  RH WIND       PRES   REMARKS
LA CROSSE      SUNNY     78  57  48 W6        29.91F
SPARTA         SUNNY     77  55  46 W7        29.93S
VIROQUA        MOSUNNY   74  57  55 W6        29.95S
BOSCOBEL       SUNNY     77  57  50 NW5       29.93F
PRAIRIE DU CHI SUNNY     75  53  45 CALM      29.93S
PLATTEVILLE    SUNNY     74  53  47 SW5       29.95S
$$

WIZ056-057-062-063-064-067-068-040000-
SOUTH CENTRAL WISCONSIN

CITY           SKY/WX    TMP DP  RH WIND       PRES   REMARKS
REEDSBURG      SUNNY     74  57  55 SW6       29.93S
BARABOO/DELLS  SUNNY     73  55  52 W7        29.93S
LONE ROCK      SUNNY     76  55  48 W8        29.94S
MINERAL POINT  SUNNY     73  54  49 W3        29.95S
MADISON        PTSUNNY   75  51  43 NW5       29.93S
MIDDLETON      SUNNY     75  51  42 NW3       29.94S
WATERTOWN      SUNNY     74  55  52 SW5       29.92S
MONROE         SUNNY     73  54  49 W6        29.94S
JANESVILLE     MOSUNNY   75  54  46 NW9       29.93S
$$

WIZ051-052-058>065-066-070>072-040000-
SOUTHEAST WISCONSIN

CITY           SKY/WX    TMP DP  RH WIND       PRES   REMARKS
MILWAUKEE      PTSUNNY   68  52  56 SE8       29.93F
WAUKESHA       MOSUNNY   73  52  46 NW6       29.93F
MILWAUKEE/TIMM SUNNY     72  45  37 E6        29.94F
RACINE         MOSUNNY   69  53  56 SE6       29.94F
BURLINGTON     MOSUNNY   73  56  53 NW7       29.92F
KENOSHA        SUNNY     71  53  52 E6        29.93F
FOND DU LAC    SUNNY     75  53  46 W8        29.92F
SHEBOYGAN      MOSUNNY   70  49  47 S8        29.92F
WEST BEND      MOSUNNY   70  50  49 E6        29.92F
JUNEAU         SUNNY     73  53  49 W6        29.94S
$$

LSZ147-162-040000-
LAKE SUPERIOR

STATION/POSITION TIME  TEMP    WIND        PRES    WAVE
                       AIR SEA DIR/SP/G            HT/PER
                 (UTC) (F)     (DEG/KT/KT) (MB)    (FT/S)
W MID LAKE BUOY  2250   54 39  200/  4/  4 1010.3R   1/ 4
DEVILS ISLAND    2300   69     280/ 10/ 12 1010.3R
SAXON HARBOR     2200   79     210/  1/  9 1010.5S
$$

LMZ867-665-643>646-040000-
LAKE MICHIGAN

STATION/POSITION TIME  TEMP    WIND        PRES    WAVE
                       AIR SEA DIR/SP/G            HT/PER
                 (UTC) (F)     (DEG/KT/KT) (MB)    (FT/S)
CHAMBERS ISLAND  2200   71     180/  6/ 15 1011.9F
S GREEN BAY BUOY 2200   71 69  200/ 10/ 14 1013.6F
N MID LAKE BUOY  2250   50 43  210/ 12/ 12 1012.2F   2/ 4
NORTHPORT PIER   2200   68     180/  5/  8 1011.9S
SISTER BAY       2244   71     250/ 11/ 13   N/A
ALGOMA LAKESHORE 2155          220/ 13/ 16   N/A
KEWAUNEE LAKESHO 2200   64     180/ 10/ 11 1012.5F
SHEBOYGAN LAKESH 2300   65     180/ 13/ 13 1013.4F
PORT WASHINGTON  2200   67     180/  5/  7 1014.6F
ATWATER BUOY     2300   62 61  170/  6/  8 1014.9F
MILWAUKEE LAKESH 2200   62     130/  3/  5   N/A
KENOSHA   LAKESH 2300   68     130/  2/  4 1013.2F
$$

TC  - TEMPERATURE IN CELSIUS
VSB - VISIBILITY IN STATUTE MILES
WCI - WIND CHILL INDEX
HX  - HEAT INDEX




USA.gov is the U.S. government's official web portal to all federal, state and local government web resources and services.